Location: Unnamed
(23.5608°S, 46.6833°W)
Time: 06:57:54
(UTC-03:00)

FENGYUN 1C DEB - Visible Passes

Search period start: 08 December 2023 00:00
Search period end: 18 December 2023 00:00
Orbit: 669 x 898 km, 98.6° (Epoch: 06 December)

Date Brightness Start Highest point End Pass type
(mag) Time Alt. Az. Time Alt. Az. Time Alt. Az.
08 Dec ? 21:01:11 10° SSE 21:05:11 48° SE 21:05:11 48° SE visible
08 Dec ? 22:43:50 10° SW 22:45:17 11° WSW 22:45:47 11° WSW visible
09 Dec ? 20:30:36 10° SE 20:33:38 25° ESE 20:33:38 25° ESE visible
09 Dec ? 22:10:04 10° SSW 22:14:15 25° WSW 22:14:15 25° WSW visible
10 Dec ? 20:01:27 10° ESE 20:02:07 11° ESE 20:02:07 11° ESE visible
10 Dec ? 21:38:01 10° S 21:42:43 51° SW 21:42:43 51° SW visible
11 Dec ? 21:06:40 10° SSE 21:11:10 60° SE 21:11:10 60° SE visible
12 Dec ? 20:35:56 10° SE 20:39:37 30° ESE 20:39:37 30° ESE visible
12 Dec ? 22:15:48 10° SSW 22:19:52 22° WSW 22:20:14 22° WSW visible
13 Dec ? 20:06:20 10° ESE 20:08:04 14° E 20:08:04 14° E visible
13 Dec ? 21:43:37 10° S 21:48:40 46° WSW 21:48:40 46° WSW visible
14 Dec ? 21:12:09 10° SSE 21:17:07 73° SE 21:17:07 73° SE visible
15 Dec ? 20:41:17 10° SSE 20:45:33 36° E 20:45:33 36° E visible
15 Dec ? 22:21:33 10° SSW 22:25:25 20° WSW 22:26:09 19° W visible
16 Dec ? 20:11:22 10° SE 20:13:59 17° E 20:13:59 17° E visible
16 Dec ? 21:49:13 10° S 21:54:22 41° WSW 21:54:35 41° W visible
17 Dec ? 21:17:39 10° SSE 21:23:00 83° SSW 21:23:00 83° SSW visible
